This is the latest recevied weather packets stored in our database for station/object W7BL. If no packets are shown the sender has not sent any weather packets the latest 10 day(s).
| Time | Temp. | Humidity | Pressure | Rain* | Wind** | Luminosity | Snow |
|---|---|---|---|---|---|---|---|
| 1778190105 | 22.78° C | 31% | - | 0 mm | - | - | - |
| 1778189801 | 22.22° C | 32% | - | 0 mm | - | - | - |
| 1778189499 | 21.67° C | 32% | - | 0 mm | - | - | - |
| 1778189194 | 22.22° C | 33% | - | 0 mm | - | - | - |
| 1778188891 | 21.67° C | 32% | - | 0 mm | - | - | - |
| 1778188588 | 21.67° C | 33% | - | 0 mm | - | - | - |
| 1778188284 | 22.22° C | 33% | - | 0 mm | - | - | - |
| 1778187982 | 21.67° C | 35% | - | 0 mm | - | - | - |
| 1778187678 | 22.22° C | 36% | - | 0 mm | - | - | - |
| 1778187375 | 21.67° C | 34% | - | 0 mm | - | - | - |
| 1778187071 | 22.22° C | 36% | - | 0 mm | - | - | - |
| 1778186767 | 21.11° C | 36% | - | 0 mm | - | - | - |
| 1778186465 | 21.11° C | 36% | - | 0 mm | - | - | - |
| 1778186163 | 21.67° C | 36% | - | 0 mm | - | - | - |
| 1778185860 | 20.56° C | 36% | - | 0 mm | - | - | - |
| 1778185555 | 21.11° C | 38% | - | 0 mm | - | - | - |
| 1778185252 | 21.11° C | 36% | - | 0 mm | - | - | - |
| 1778184948 | 21.11° C | 37% | - | 0 mm | - | - | - |
| 1778184644 | 21.11° C | 37% | - | 0 mm | - | - | - |
| 1778184340 | 21.11° C | 40% | - | 0 mm | - | - | - |
| 1778184036 | 20.56° C | 39% | - | 0 mm | - | - | - |
| 1778183733 | 21.11° C | 38% | - | 0 mm | - | - | - |
| 1778183431 | 21.67° C | 36% | - | 0 mm | - | - | - |
| 1778183127 | 20.56° C | 38% | - | 0 mm | - | - | - |
| 1778182823 | 20° C | 40% | - | 0 mm | - | - | - |
* Rain latest hour (hover to see other rain measurements)
** Current wind speed in m/s (hover to see current wind gust speed)